This is the latest recevied weather packets stored in our database for station/object N8AMF. If no packets are shown the sender has not sent any weather packets the latest 10 day(s).
| Time | Temp. | Humidity | Pressure | Rain* | Wind** | Luminosity | Snow |
|---|---|---|---|---|---|---|---|
| 1778104423 | 11.11° C | 61% | 1011.9 hPa | 0 mm | - | 106 W/m² | - |
| 1778104119 | 11.11° C | 62% | 1011.9 hPa | 0 mm | - | 105 W/m² | - |
| 1778103816 | 10.56° C | 63% | 1011.7 hPa | 0 mm | - | 113 W/m² | - |
| 1778103514 | 11.11° C | 62% | 1011.7 hPa | 0 mm | - | 116 W/m² | - |
| 1778103210 | 11.11° C | 61% | 1011.6 hPa | 0 mm | - | 130 W/m² | - |
| 1778102908 | 11.11° C | 61% | 1011.7 hPa | 0 mm | - | 165 W/m² | - |
| 1778102604 | 11.11° C | 61% | 1011.5 hPa | 0 mm | - | 150 W/m² | - |
| 1778102298 | 11.67° C | 58% | 1011.4 hPa | 0 mm | - | 162 W/m² | - |
| 1778101995 | 11.67° C | 61% | 1011.3 hPa | 0 mm | - | 197 W/m² | - |
| 1778101692 | 11.67° C | 60% | 1011.5 hPa | 0 mm | - | 609 W/m² | - |
| 1778101389 | 11.67° C | 60% | 1011.3 hPa | 0 mm | - | 237 W/m² | - |
| 1778101087 | 12.22° C | 58% | 1011.5 hPa | 0 mm | - | 247 W/m² | - |
| 1778100782 | 12.22° C | 59% | 1011.5 hPa | 0 mm | - | 308 W/m² | - |
| 1778100478 | 12.22° C | 60% | 1011.4 hPa | 0 mm | - | 443 W/m² | - |
| 1778100177 | 12.22° C | 61% | 1011.4 hPa | 0 mm | - | 353 W/m² | - |
| 1778099874 | 12.22° C | 62% | 1011.3 hPa | 0 mm | - | 389 W/m² | - |
| 1778099571 | 12.78° C | 59% | 1011.2 hPa | 0 mm | - | 385 W/m² | - |
| 1778099268 | 12.78° C | 58% | 1011.4 hPa | 0 mm | - | 719 W/m² | - |
| 1778098964 | 11.67° C | 60% | 1011.4 hPa | 0 mm | - | 530 W/m² | - |
| 1778098661 | 11.67° C | 62% | 1011.3 hPa | 0 mm | - | 276 W/m² | - |
| 1778098358 | 11.67° C | 60% | 1011.5 hPa | 0 mm | - | 214 W/m² | - |
| 1778098055 | 12.22° C | 61% | 1011.6 hPa | 0 mm | - | 223 W/m² | - |
| 1778097752 | 12.22° C | 58% | 1011.5 hPa | 0 mm | - | 257 W/m² | - |
| 1778097448 | 12.22° C | 54% | 1011.4 hPa | 0 mm | - | 282 W/m² | - |
| 1778097145 | 12.22° C | 57% | 1011.6 hPa | 0 mm | - | 354 W/m² | - |
* Rain latest hour (hover to see other rain measurements)
** Current wind speed in m/s (hover to see current wind gust speed)